Wind_Speed
39 39 39 39 39 39 39 38 38 37 37 37 37 38 38 39 39 40 40 41 43 45 47 48 50 51 51 51 50 51 51 51 52 53 54 53 50 50 49 47 47 47 46 45 44 43 41 41 41 42 44 44 44 42 41 39 38 38 40 42 42 43 45
40 40 40 40 40 40 40 40 40 39 39 39 39 39 40 40 40 41 41 42 43 45 47 49 50 51 52 53 54 54 54 54 53 54 57 57 55 53 53 51 51 51 50 50 49 47 46 46 44 43 43 43 44 44 43 42 40 38 39 40 41 41 41
41 41 41 41 41 42 42 42 42 41 41 41 40 41 41 41 42 42 43 44 45 46 47 49 50 52 53 54 55 56 57 57 56 55 56 57 57 57 56 56 56 55 54 54 53 52 50 50 49 48 46 44 44 45 46 45 43 40 39 40 41 41 41
43 43 43 43 43 43 43 43 43 43 43 43 43 43 43 43 44 44 44 45 46 47 48 49 50 52 54 55 56 57 58 59 59 57 56 57 58 58 59 59 59 58 58 58 57 56 55 54 55 55 53 50 47 46 46 47 45 43 42 41 41 41 41
45 45 45 45 44 44 44 44 45 45 45 45 45 45 45 45 46 46 46 46 47 48 49 50 51 52 54 55 56 57 59 60 60 59 57 57 58 58 59 59 60 60 60 60 60 59 58 57 58 58 57 56 53 51 49 46 46 46 45 44 43 42 42
47 46 47 47 46 46 46 46 46 46 47 47 47 47 47 47 47 48 48 48 49 49 50 51 52 53 54 55 56 57 59 60 61 60 59 58 58 58 59 59 61 61 61 61 61 60 59 59 59 59 59 58 57 57 55 49 47 47 47 47 46 45 44
49 48 48 48 48 48 48 48 48 48 48 48 49 49 49 49 49 50 50 51 51 51 52 52 53 54 55 56 57 58 59 60 61 61 61 59 58 59 60 60 61 62 63 63 62 61 61 61 61 62 62 61 59 59 59 56 52 50 49 50 49 47 47
51 50 50 50 49 49 50 50 50 50 50 50 50 51 51 51 51 51 52 52 53 54 54 55 55 56 57 57 58 59 60 61 61 62 62 62 61 60 60 62 62 63 64 64 64 64 63 64 64 64 64 63 62 61 61 60 56 54 53 52 50 49 49
53 53 53 52 51 51 51 51 52 52 52 52 52 52 53 53 53 53 53 54 54 55 56 57 57 58 58 59 59 60 61 62 62 63 63 64 63 63 62 63 64 65 65 65 65 66 65 65 65 66 66 65 64 63 63 62 59 58 57 55 52 51 51
55 55 55 55 54 54 53 53 53 54 54 54 54 54 54 55 55 55 55 55 56 56 57 58 59 60 60 60 61 61 62 62 63 63 64 64 65 65 65 64 65 66 66 66 66 66 66 66 66 66 67 67 66 65 64 63 62 61 60 58 55 54 53
58 57 57 57 57 57 56 55 55 55 56 56 56 56 56 57 57 57 57 57 58 58 59 59 60 61 62 62 62 63 63 64 64 64 65 65 66 66 67 67 67 67 67 67 67 67 67 66 66 66 67 68 68 67 66 65 64 63 62 61 59 58 56
60 60 60 60 60 59 59 58 58 57 58 58 58 58 58 58 59 59 59 59 60 60 61 61 62 62 62 63 63 64 65 65 66 66 66 66 67 67 67 68 68 68 68 68 68 68 68 68 67 67 67 68 69 69 68 66 64 65 65 63 62 61 59
62 62 63 63 63 63 62 61 61 61 61 60 60 60 60 60 61 61 61 61 62 62 63 63 63 64 64 64 64 65 66 67 67 68 68 68 68 69 69 69 70 70 69 69 69 70 70 69 69 69 68 68 68 69 70 69 66 65 67 66 64 64 63
65 65 65 66 66 66 65 64 64 64 64 64 63 63 63 63 63 63 63 63 64 64 64 64 65 65 65 66 66 66 67 68 68 69 69 70 70 70 71 71 72 72 71 71 71 71 71 71 71 71 71 70 70 70 70 70 69 67 68 68 67 67 66
67 67 67 68 68 68 68 67 67 67 67 67 67 66 66 66 66 66 66 66 67 67 66 66 66 66 67 67 68 68 69 69 70 71 71 72 72 72 73 73 74 74 73 73 73 73 72 72 72 72 72 72 72 72 71 71 71 70 69 70 70 69 68
69 69 69 70 70 70 70 70 70 70 70 70 70 69 69 69 70 70 70 70 70 70 69 69 68 68 68 69 69 69 70 71 72 73 73 73 74 74 74 75 76 76 75 75 75 76 75 74 74 74 74 74 74 74 74 73 72 72 72 72 72 72 71
70 71 71 71 71 71 71 72 72 72 72 72 72 72 72 72 73 73 74 74 74 73 72 72 71 71 71 71 71 71 71 72 73 74 75 75 76 76 76 76 77 78 77 77 77 77 77 76 76 75 76 76 75 75 76 75 74 74 74 74 75 74 74
72 72 72 72 73 73 73 73 74 74 74 74 75 75 75 75 75 76 76 76 76 76 76 75 75 74 73 73 73 74 74 74 74 75 75 76 77 77 77 78 79 79 79 79 79 80 79 78 78 77 77 77 77 77 77 77 76 76 76 76 77 77 77
75 74 74 74 74 74 74 75 75 76 76 76 76 77 77 77 77 78 78 78 78 78 78 78 77 77 77 76 76 77 76 76 76 77 77 77 78 78 79 80 80 81 81 81 81 81 81 81 80 79 79 79 79 79 78 78 77 77 77 77 78 79 80
79 78 78 78 77 77 76 77 77 77 77 77 78 78 78 79 79 80 80 80 80 80 80 80 79 79 79 79 79 79 79 79 79 79 80 80 80 80 80 81 82 82 83 83 83 83 83 83 82 82 81 81 80 80 79 79 79 78 77 78 79 80 81
80 80 80 81 81 81 81 81 81 80 80 80 80 80 80 80 81 81 81 82 82 82 82 82 81 81 81 81 81 81 81 81 81 82 82 83 83 83 83 83 83 84 84 84 84 85 85 85 84 84 83 83 82 81 81 81 80 79 78 78 79 80 81
79 79 80 81 82 84 85 85 85 85 84 84 84 84 84 84 84 84 84 84 84 84 84 83 83 82 82 82 82 82 82 82 83 83 84 84 85 85 85 85 85 85 86 86 86 86 87 87 86 86 86 85 84 83 83 82 82 81 80 79 79 80 81
73 73 74 75 77 79 82 84 86 87 87 88 88 88 88 88 88 87 87 87 87 87 87 86 85 85 84 83 83 83 83 83 84 84 84 85 85 86 86 86 87 87 88 88 88 88 88 88 88 87 87 87 87 86 85 84 83 83 82 81 81 81 81
61 63 67 70 72 74 78 81 83 85 87 89 90 90 91 92 92 91 91 91 91 90 90 89 89 88 86 85 84 84 84 84 85 85 85 85 86 86 87 87 88 89 89 90 90 90 90 90 90 89 88 88 88 88 87 86 86 85 84 83 83 83 82
59 57 60 66 71 74 77 78 80 82 86 88 89 91 92 93 94 94 94 94 94 94 94 94 93 91 90 88 87 87 86 86 86 87 87 87 87 87 88 88 89 89 90 91 91 92 92 92 92 91 90 90 89 88 87 87 87 87 86 85 84 84 84
67 65 61 60 66 74 76 77 79 80 83 86 88 90 92 92 93 94 95 96 97 97 97 97 96 95 93 92 92 91 90 90 90 90 89 89 89 89 90 91 91 91 91 91 92 92 92 92 93 93 92 92 91 89 88 87 87 87 87 87 86 85 85
71 73 70 64 65 71 75 77 79 80 81 84 87 89 90 91 92 94 95 96 98 98 99 99 98 97 96 95 95 94 93 93 92 93 93 93 93 93 94 94 94 94 94 93 93 92 92 92 92 92 92 92 92 91 90 88 87 87 87 87 86 86 87
71 75 78 76 75 78 80 79 80 80 79 79 82 86 89 91 91 93 94 96 97 98 99 99 99 99 98 98 97 96 95 94 94 94 95 96 96 97 98 98 98 98 97 97 96 95 93 92 91 91 91 91 91 91 91 89 88 87 87 87 86 86 88
74 77 82 85 86 89 89 88 85 82 79 77 78 82 87 90 92 93 94 95 95 96 97 98 99 99 99 99 98 97 97 96 96 96 97 98 99 100 101 101 101 101 101 100 99 98 96 93 91 90 89 89 89 90 90 90 90 88 87 87 87 87 88
74 78 84 89 92 94 95 95 93 90 87 84 82 82 84 88 90 92 93 93 94 95 95 96 97 97 97 97 97 97 96 95 96 97 99 100 101 102 103 103 104 103 103 102 101 100 99 97 94 91 89 88 87 87 88 90 91 89 88 87 87 87 87
73 77 82 88 93 97 100 100 99 97 94 90 86 85 85 87 88 90 91 91 91 92 93 93 94 94 94 94 93 93 93 93 95 97 99 100 102 103 104 105 105 104 102 101 101 101 100 99 97 94 92 89 87 86 88 90 91 90 89 88 86 86 86
70 75 79 84 90 96 99 100 99 98 95 89 86 85 86 87 87 88 87 86 85 85 85 85 85 86 86 86 86 87 89 91 93 96 98 99 101 102 103 103 103 101 99 98 98 99 99 99 97 96 95 93 90 90 91 92 91 90 88 87 86 85 85
68 73 78 83 87 91 93 93 93 92 90 86 84 84 85 85 86 85 81 78 75 73 71 70 69 70 71 74 77 80 83 86 89 93 96 98 99 100 100 99 97 95 93 93 93 94 96 96 96 96 95 95 94 94 95 95 92 90 89 87 86 86 85
70 74 79 82 83 84 84 84 83 83 83 83 83 82 82 83 82 80 75 70 67 63 60 58 58 59 62 65 69 73 76 81 85 89 93 95 96 95 94 92 90 89 88 87 87 88 90 91 93 93 94 95 96 97 97 96 94 92 91 89 87 86 85
74 75 76 76 77 76 76 76 76 77 78 80 80 80 80 79 78 74 69 65 61 57 54 53 53 55 57 61 65 70 74 79 84 88 89 89 88 87 86 85 84 83 82 81 81 81 83 85 87 88 90 91 93 95 96 96 95 94 92 91 89 87 86
72 73 72 71 71 70 69 70 72 74 76 78 79 79 78 76 72 68 64 61 58 54 52 52 52 54 57 61 65 70 75 79 83 83 81 79 79 79 79 79 79 78 78 77 76 76 76 78 79 81 83 85 87 90 92 93 94 94 93 91 89 88 87
69 70 69 69 67 66 66 67 70 73 75 77 77 77 75 72 68 65 62 59 56 53 53 53 55 58 60 64 68 72 76 77 77 75 73 71 72 73 74 75 75 75 75 74 73 71 70 70 72 74 77 79 81 83 86 88 90 92 92 91 90 89 89
Wind_Direction
250 250 251 251 251 250 250 249 248 246 244 242 241 241 240 238 237 235 234 232 231 229 227 225 221 218 217 219 220 219 221 224 226 230 234 233 231 228 229 232 235 238 240 240 240 243 246 249 252 253 254 253 251 253 252 246 240 239 243 247 248 248 248
250 249 249 249 249 249 248 248 248 247 245 243 241 240 240 240 238 236 235 234 233 232 231 229 227 225 222 220 220 220 220 223 225 227 231 234 234 233 231 232 234 237 239 240 239 240 243 246 247 248 252 251 248 249 251 249 245 240 239 243 246 248 248
249 249 249 248 248 248 248 247 247 247 247 245 243 241 240 240 240 238 237 235 234 233 233 232 231 230 229 226 222 220 220 221 224 225 227 230 234 236 236 235 235 237 240 242 242 242 243 246 247 248 251 252 250 249 251 252 251 247 243 241 243 245 246
249 249 249 248 248 247 247 247 247 246 246 245 244 242 240 240 240 240 239 237 236 235 235 235 234 232 232 232 230 227 224 224 225 227 227 227 230 233 236 237 236 237 239 242 244 244 245 247 250 252 253 253 252 251 251 254 256 256 252 247 245 243 243
250 250 249 249 249 248 247 246 246 246 245 245 245 244 242 240 240 240 241 240 239 238 237 236 236 236 235 235 235 234 232 231 232 233 234 232 231 232 233 235 236 237 238 241 243 244 246 248 250 253 254 254 254 253 251 252 256 258 258 256 253 249 245
251 250 250 250 249 249 248 247 246 245 245 245 245 244 243 242 241 240 240 241 240 240 239 238 238 237 237 237 237 237 237 237 237 238 239 238 237 236 235 234 235 236 237 239 241 242 243 245 248 251 253 254 254 255 253 251 252 256 258 259 258 257 254
251 250 250 250 249 249 249 248 248 247 246 245 245 245 244 244 243 242 241 241 241 241 240 240 239 239 238 238 238 238 238 239 239 240 241 241 240 240 239 238 237 237 237 238 239 241 242 243 245 248 252 254 253 253 253 252 252 253 254 256 258 259 259
251 251 250 250 250 249 249 248 248 248 248 247 246 245 245 245 245 244 243 242 241 242 242 241 241 241 240 239 239 239 239 239 240 240 241 242 242 241 241 241 241 240 239 238 239 240 241 242 244 246 249 252 253 251 251 252 253 252 250 251 253 255 256
252 251 251 251 250 250 249 249 248 248 248 248 248 247 247 247 246 246 245 245 244 243 243 243 243 243 242 242 241 241 241 240 241 241 241 242 243 243 242 242 242 243 243 242 241 240 241 241 243 245 247 249 251 251 250 252 253 252 250 249 249 251 253
254 253 252 251 251 250 250 250 249 249 249 248 248 248 248 248 248 248 247 247 246 246 245 245 245 245 245 245 244 244 244 243 243 243 243 243 243 243 243 243 243 243 243 244 244 243 242 242 242 243 245 247 248 249 249 251 252 251 251 250 249 248 249
254 254 253 253 252 251 251 251 250 250 250 250 250 249 249 249 249 249 248 248 248 247 247 247 246 246 247 247 247 247 247 246 246 245 245 245 245 245 245 244 244 244 244 244 244 245 245 244 243 242 243 244 246 247 247 248 249 250 251 250 250 250 248
255 254 254 254 253 252 252 252 252 252 252 252 252 251 251 250 250 250 249 249 249 248 248 248 248 248 248 248 248 249 249 249 249 248 248 248 247 247 247 247 246 246 245 245 245 245 245 245 245 244 243 242 243 244 245 245 246 248 250 250 250 251 250
255 255 255 255 255 254 253 253 253 253 253 253 253 253 253 252 252 251 251 250 250 250 249 249 249 249 249 249 249 250 250 250 251 250 250 250 250 249 249 249 249 249 248 247 246 245 245 245 246 246 245 243 242 242 242 243 243 245 248 249 249 250 251
255 255 255 255 255 255 255 255 254 254 254 254 254 254 254 253 253 252 252 251 251 251 250 250 250 250 250 250 250 250 250 251 251 252 252 252 251 251 251 251 250 250 250 250 249 248 247 246 246 246 246 245 244 243 241 241 241 242 246 248 248 249 250
256 255 255 255 255 256 256 256 256 255 255 255 255 255 254 254 253 253 252 252 251 251 251 251 251 251 251 251 251 251 251 251 251 252 252 252 252 252 252 252 252 251 251 250 250 250 249 248 247 246 246 246 245 244 243 241 240 240 244 246 246 247 249
255 255 255 256 256 256 256 256 256 256 256 256 256 255 255 255 254 254 253 253 252 252 252 252 252 252 252 252 251 251 251 251 251 251 251 252 252 252 252 253 253 253 252 251 251 250 250 249 248 247 247 247 246 246 244 242 241 241 242 246 246 245 246
254 254 255 255 255 255 256 256 256 256 256 256 256 256 255 255 255 255 254 254 254 254 253 253 252 252 252 251 251 251 251 251 251 251 251 252 252 252 252 252 253 253 253 253 252 251 251 250 249 248 248 247 247 246 245 243 241 241 241 244 247 246 245
254 254 254 254 255 255 255 256 256 256 256 256 256 256 255 255 255 255 255 255 255 255 255 255 254 254 253 252 252 251 251 250 251 251 251 251 251 251 251 252 252 252 253 253 253 253 252 251 250 249 249 248 247 247 247 245 243 241 240 241 245 247 246
257 256 256 256 255 255 255 256 256 256 256 256 256 256 256 256 256 256 256 255 256 255 255 255 255 255 254 254 253 252 251 251 251 251 251 251 251 251 251 251 251 252 252 252 252 252 253 253 252 251 250 249 249 247 247 247 245 242 241 240 242 245 246
258 258 258 258 258 257 257 256 256 256 256 256 256 257 257 257 257 256 256 256 256 256 256 255 255 254 254 254 253 253 253 252 252 252 252 252 251 251 251 250 251 251 251 251 251 251 252 252 252 252 251 250 250 249 248 248 247 245 243 241 242 243 245
259 260 260 259 259 259 258 258 257 257 257 257 257 256 256 256 256 257 257 257 257 256 256 256 255 255 254 254 253 253 253 253 253 253 253 253 253 252 252 251 251 251 251 251 251 251 250 250 250 250 251 251 251 250 249 249 248 247 245 243 243 243 244
260 260 260 260 260 259 259 259 258 258 258 257 257 257 257 256 256 256 256 256 256 256 256 256 255 255 255 254 254 254 254 254 254 254 253 253 253 253 253 252 252 252 252 251 251 251 251 250 250 249 249 250 250 250 250 249 249 248 247 246 245 244 244
264 263 262 262 261 261 259 258 258 257 257 257 257 257 257 257 257 256 256 256 256 256 256 256 256 256 255 255 255 255 255 255 255 254 254 254 254 253 253 253 252 252 252 252 251 251 251 251 250 250 249 249 248 249 249 249 249 249 248 247 247 246 246
260 265 267 266 263 261 259 257 256 256 256 256 256 256 256 257 257 257 257 257 257 257 257 257 257 256 256 256 256 256 256 256 256 255 255 255 255 255 254 254 253 252 252 252 252 251 251 251 251 251 250 249 249 248 248 248 248 248 248 247 247 248 247
246 252 259 264 264 261 258 255 254 254 254 254 254 255 255 256 256 257 257 257 257 258 258 258 257 257 257 257 257 256 256 256 256 256 256 256 256 256 256 255 255 254 253 252 252 251 251 251 251 251 251 251 250 249 248 247 247 248 248 247 247 247 248
241 242 245 254 259 259 257 255 253 252 252 252 253 253 254 255 255 256 256 256 257 257 258 258 258 258 258 258 257 257 257 257 257 257 257 257 257 257 257 256 256 255 254 253 253 252 251 251 251 251 251 251 251 250 249 248 247 247 247 247 247 247 247
240 239 240 244 252 255 255 255 254 253 252 251 251 252 253 253 254 254 255 256 256 257 257 258 258 259 259 258 258 258 257 257 257 257 257 257 257 257 257 257 256 256 256 255 254 253 252 251 251 251 251 251 252 251 251 250 248 248 247 247 247 247 247
239 238 238 241 247 252 253 253 254 255 255 254 253 252 252 252 253 253 254 255 255 256 257 258 258 259 259 259 259 259 258 258 258 258 258 258 257 257 257 256 256 256 256 256 255 255 254 253 252 251 251 251 252 252 252 251 250 249 248 247 246 246 247
238 236 237 240 245 250 252 254 255 256 257 259 259 257 255 254 254 254 254 254 255 256 257 257 258 259 259 260 260 260 260 260 260 259 259 258 258 257 257 256 256 255 255 255 255 255 255 254 253 252 252 251 251 251 252 252 251 250 249 248 247 246 246
241 238 236 239 243 248 252 254 256 257 258 260 262 262 260 258 257 257 256 256 256 256 256 257 258 259 259 260 261 261 261 261 261 261 260 259 259 258 258 257 256 255 255 255 255 255 256 255 255 254 253 252 252 251 251 252 252 251 250 249 247 247 246
245 243 240 239 242 246 249 252 255 257 259 260 262 262 262 262 261 260 259 258 258 258 258 258 259 259 260 261 261 262 262 261 261 260 260 260 259 259 259 258 257 256 255 255 255 255 255 255 255 255 254 253 253 252 252 251 251 251 250 249 248 247 247
245 246 246 244 243 244 247 250 253 256 259 260 261 261 262 262 262 262 262 261 261 261 261 262 262 263 263 262 262 261 260 259 259 259 259 259 259 259 259 259 259 258 257 257 256 256 256 255 255 255 255 254 253 253 252 251 251 250 250 250 249 248 247
245 245 246 246 246 247 248 251 253 256 259 260 261 261 261 262 263 265 266 267 267 266 266 266 266 265 263 261 259 258 257 257 257 257 258 259 259 259 260 261 261 261 261 259 258 257 257 256 255 254 254 253 253 252 252 251 250 250 250 249 249 248 247
247 245 245 246 248 250 252 254 256 257 259 260 261 262 262 264 266 267 269 270 270 270 269 269 268 265 262 259 258 257 256 255 255 255 256 258 259 261 262 263 264 265 264 263 261 259 258 257 255 253 252 251 251 251 251 251 251 250 249 248 248 247 247
248 248 248 249 251 252 254 256 257 258 259 260 261 262 264 265 267 269 271 272 273 273 273 271 268 266 263 261 258 256 254 254 254 255 257 259 262 264 265 266 267 267 266 265 263 261 258 257 255 254 252 251 250 250 250 250 250 250 249 248 247 247 247
249 251 252 252 253 253 253 254 255 256 257 258 260 262 264 266 268 271 273 274 275 276 275 273 270 267 264 262 259 256 255 255 256 259 261 263 265 266 267 267 267 267 267 266 264 262 259 258 257 256 255 253 251 250 249 249 249 250 249 249 247 247 246
250 252 253 254 254 253 252 252 251 252 254 256 258 261 263 267 270 272 274 276 277 277 276 274 272 269 265 262 259 257 257 259 261 264 266 266 266 266 267 267 267 267 267 266 264 263 261 260 258 257 256 254 252 251 249 248 248 249 249 249 248 246 245
Height
10613 10614 10615 10617 10618 10619 10621 10622 10624 10626 10628 10630 10632 10633 10635 10636 10638 10641 10643 10645 10647 10650 10652 10654 10657 10659 10662 10664 10666 10668 10670 10672 10673 10674 10675 10676 10677 10679 10680 10682 10683 10684 10685 10686 10688 10690 10693 10695 10696 10696 10696 10697 10699 10699 10700 10700 10702 10704 10705 10707 10709 10710 10712
10609 10610 10611 10613 10614 10615 10617 10618 10619 10621 10623 10625 10627 10628 10630 10631 10633 10635 10637 10640 10642 10644 10646 10648 10650 10653 10655 10658 10660 10662 10664 10666 10668 10669 10670 10671 10672 10674 10676 10677 10678 10679 10680 10682 10683 10685 10687 10690 10692 10692 10693 10694 10695 10696 10696 10696 10697 10699 10700 10702 10704 10705 10707
10604 10605 10607 10609 10610 10611 10613 10614 10615 10617 10618 10620 10622 10624 10625 10626 10628 10629 10631 10634 10636 10639 10640 10642 10644 10647 10649 10651 10653 10656 10658 10660 10661 10663 10665 10666 10668 10669 10671 10672 10673 10674 10675 10677 10678 10680 10683 10684 10686 10687 10689 10691 10692 10692 10693 10693 10694 10694 10695 10696 10698 10700 10701
10599 10600 10602 10604 10606 10607 10609 10610 10611 10613 10614 10615 10617 10619 10620 10622 10623 10624 10626 10628 10631 10633 10635 10637 10639 10641 10642 10644 10647 10649 10651 10653 10654 10656 10658 10660 10662 10663 10665 10667 10668 10669 10670 10671 10673 10675 10678 10680 10680 10682 10684 10686 10688 10689 10689 10690 10692 10691 10691 10691 10692 10694 10696
10594 10595 10596 10598 10600 10602 10604 10605 10607 10608 10609 10611 10612 10614 10615 10617 10618 10620 10621 10623 10625 10627 10630 10632 10633 10635 10637 10638 10640 10642 10644 10646 10648 10649 10651 10653 10655 10657 10659 10660 10661 10663 10665 10666 10667 10669 10672 10674 10675 10676 10677 10680 10683 10684 10685 10687 10688 10688 10688 10687 10687 10688 10690
10588 10589 10590 10592 10594 10596 10598 10600 10601 10603 10604 10606 10607 10609 10610 10612 10613 10615 10616 10618 10620 10621 10623 10625 10627 10629 10631 10633 10634 10636 10638 10639 10641 10642 10644 10646 10648 10650 10652 10653 10654 10656 10658 10660 10662 10664 10666 10668 10670 10671 10671 10674 10678 10678 10679 10683 10684 10684 10684 10683 10683 10683 10684
10582 10583 10584 10586 10588 10590 10592 10593 10595 10597 10599 10601 10602 10603 10605 10606 10608 10610 10611 10612 10614 10615 10617 10619 10621 10622 10624 10626 10628 10629 10631 10633 10634 10635 10637 10639 10641 10643 10645 10646 10647 10649 10651 10653 10656 10658 10660 10662 10664 10665 10665 10667 10671 10672 10673 10676 10679 10680 10680 10678 10679 10680 10680
10577 10578 10579 10580 10582 10584 10585 10587 10588 10590 10593 10594 10596 10598 10599 10601 10602 10604 10605 10607 10608 10610 10611 10612 10614 10615 10617 10619 10621 10622 10624 10626 10627 10629 10630 10632 10634 10636 10637 10639 10640 10641 10643 10646 10649 10651 10653 10656 10658 10659 10660 10662 10664 10666 10667 10669 10673 10674 10673 10673 10675 10675 10675
10571 10572 10573 10574 10576 10577 10579 10580 10582 10584 10586 10588 10590 10591 10593 10595 10597 10598 10600 10601 10603 10604 10605 10606 10608 10609 10611 10612 10614 10616 10617 10619 10621 10623 10624 10625 10627 10629 10630 10632 10633 10634 10636 10638 10641 10643 10646 10648 10650 10652 10654 10656 10658 10660 10662 10664 10666 10666 10666 10668 10670 10670 10670
10564 10566 10567 10568 10570 10571 10572 10574 10575 10577 10579 10581 10583 10585 10587 10589 10590 10592 10594 10595 10597 10598 10599 10600 10601 10603 10604 10606 10608 10609 10611 10612 10614 10616 10618 10619 10620 10622 10623 10624 10625 10627 10629 10631 10634 10636 10638 10640 10643 10645 10647 10649 10651 10654 10656 10657 10658 10658 10659 10661 10664 10664 10665
10556 10558 10560 10561 10563 10564 10566 10567 10569 10571 10572 10574 10576 10578 10580 10582 10584 10585 10587 10589 10590 10591 10592 10593 10595 10596 10598 10600 10601 10603 10604 10606 10607 10609 10610 10611 10613 10614 10615 10617 10618 10619 10622 10624 10626 10628 10630 10632 10635 10637 10639 10642 10645 10647 10649 10651 10652 10651 10651 10654 10656 10657 10660
10548 10550 10552 10553 10555 10557 10559 10561 10562 10564 10565 10566 10569 10570 10572 10574 10576 10578 10580 10581 10583 10584 10585 10586 10588 10589 10591 10593 10595 10596 10597 10598 10600 10602 10603 10604 10605 10607 10608 10609 10610 10612 10614 10616 10618 10620 10623 10625 10627 10629 10631 10634 10637 10640 10642 10644 10646 10644 10643 10647 10650 10651 10654
10541 10542 10544 10545 10546 10549 10551 10553 10556 10557 10558 10559 10561 10563 10565 10567 10569 10570 10572 10573 10575 10576 10577 10579 10580 10582 10584 10586 10588 10589 10590 10591 10592 10594 10595 10596 10598 10599 10600 10601 10602 10604 10606 10608 10610 10612 10614 10617 10619 10621 10623 10625 10628 10632 10634 10637 10640 10638 10636 10640 10643 10644 10647
10533 10534 10536 10537 10538 10540 10543 10545 10548 10549 10550 10552 10553 10555 10557 10559 10560 10562 10563 10565 10566 10568 10569 10571 10573 10575 10577 10579 10580 10581 10582 10583 10584 10585 10587 10588 10589 10591 10592 10592 10594 10595 10597 10600 10601 10603 10606 10608 10610 10612 10614 10617 10619 10622 10625 10629 10633 10633 10630 10631 10635 10636 10639
10524 10525 10527 10528 10530 10532 10534 10537 10539 10541 10542 10543 10545 10547 10549 10550 10551 10552 10554 10555 10557 10558 10560 10563 10565 10567 10568 10570 10572 10573 10574 10575 10576 10576 10577 10578 10580 10581 10582 10583 10584 10586 10589 10591 10592 10593 10596 10598 10601 10604 10605 10608 10610 10613 10616 10620 10624 10626 10624 10623 10625 10628 10630
10514 10515 10517 10519 10521 10524 10526 10528 10530 10532 10533 10534 10536 10538 10539 10540 10541 10542 10543 10544 10546 10548 10551 10553 10555 10557 10559 10560 10562 10563 10565 10565 10566 10567 10568 10569 10570 10572 10573 10574 10574 10576 10579 10581 10582 10583 10586 10588 10591 10594 10596 10598 10601 10603 10606 10611 10615 10618 10618 10615 10616 10620 10622
10504 10505 10507 10509 10511 10514 10516 10518 10520 10522 10524 10525 10527 10528 10529 10530 10531 10532 10533 10534 10535 10538 10541 10543 10545 10547 10549 10550 10551 10553 10554 10555 10555 10556 10557 10558 10560 10562 10564 10565 10565 10566 10568 10570 10571 10573 10575 10578 10581 10584 10586 10588 10591 10593 10595 10600 10605 10609 10611 10610 10607 10610 10613
10494 10495 10497 10499 10501 10504 10506 10508 10510 10512 10514 10515 10517 10518 10519 10520 10521 10522 10522 10523 10525 10528 10530 10532 10535 10537 10539 10540 10541 10541 10543 10544 10545 10546 10547 10548 10549 10551 10553 10554 10554 10555 10557 10560 10561 10562 10564 10567 10570 10573 10575 10577 10579 10582 10584 10588 10594 10598 10602 10603 10600 10600 10603
10484 10486 10488 10489 10491 10494 10496 10497 10499 10501 10503 10505 10506 10507 10509 10510 10511 10511 10511 10513 10515 10517 10519 10521 10523 10526 10527 10529 10530 10530 10532 10533 10534 10536 10536 10537 10538 10540 10541 10543 10543 10544 10546 10548 10550 10551 10552 10556 10559 10561 10564 10566 10568 10571 10574 10577 10581 10587 10591 10593 10592 10591 10593
10474 10477 10478 10479 10481 10483 10485 10486 10487 10490 10492 10494 10495 10496 10498 10499 10499 10500 10501 10502 10504 10505 10507 10509 10512 10514 10515 10517 10518 10519 10521 10523 10524 10525 10526 10526 10527 10528 10530 10531 10532 10532 10534 10536 10538 10540 10541 10544 10547 10549 10551 10554 10556 10560 10563 10566 10569 10575 10579 10583 10584 10583 10583
10466 10467 10468 10469 10470 10472 10473 10474 10476 10479 10481 10482 10484 10485 10487 10487 10487 10488 10489 10490 10492 10493 10494 10496 10499 10501 10503 10505 10506 10508 10510 10512 10513 10514 10515 10515 10516 10517 10519 10520 10521 10522 10522 10524 10526 10528 10529 10531 10534 10537 10539 10541 10544 10548 10551 10554 10557 10562 10567 10571 10574 10574 10574
10457 10458 10458 10458 10459 10460 10461 10462 10464 10466 10468 10469 10471 10473 10474 10474 10475 10476 10477 10478 10479 10480 10481 10483 10485 10488 10490 10492 10495 10497 10499 10500 10501 10502 10503 10504 10504 10506 10507 10509 10510 10511 10512 10513 10514 10516 10517 10518 10521 10525 10527 10529 10532 10536 10539 10543 10546 10549 10554 10559 10562 10563 10565
10445 10446 10446 10447 10448 10448 10448 10449 10451 10453 10454 10456 10457 10459 10460 10461 10462 10464 10465 10466 10467 10468 10469 10470 10473 10475 10478 10480 10483 10485 10487 10488 10489 10490 10491 10492 10492 10494 10495 10497 10498 10499 10500 10501 10502 10504 10505 10506 10509 10512 10514 10517 10520 10524 10527 10531 10534 10537 10541 10546 10550 10552 10555
10433 10435 10434 10432 10433 10434 10434 10435 10438 10439 10440 10441 10443 10445 10445 10447 10449 10451 10452 10453 10454 10455 10456 10458 10460 10462 10465 10468 10471 10473 10475 10476 10477 10478 10479 10480 10481 10481 10482 10484 10485 10486 10487 10488 10489 10491 10493 10495 10497 10500 10502 10504 10507 10512 10516 10519 10522 10525 10529 10534 10538 10540 10544
10422 10424 10423 10417 10415 10415 10417 10421 10424 10425 10425 10427 10428 10430 10431 10433 10435 10437 10439 10440 10441 10442 10443 10444 10447 10450 10453 10456 10459 10461 10462 10464 10465 10466 10467 10468 10469 10469 10469 10470 10471 10472 10473 10474 10475 10478 10480 10482 10484 10487 10490 10492 10495 10499 10504 10508 10511 10513 10517 10522 10527 10530 10533
10410 10411 10410 10405 10400 10398 10400 10405 10408 10411 10412 10413 10414 10416 10418 10420 10423 10424 10426 10427 10427 10428 10429 10431 10434 10437 10440 10442 10445 10447 10450 10451 10452 10453 10454 10455 10456 10456 10456 10456 10457 10458 10458 10459 10461 10464 10466 10469 10472 10474 10478 10480 10483 10487 10491 10496 10500 10503 10506 10510 10516 10520 10520
10400 10399 10399 10396 10389 10385 10387 10391 10394 10397 10398 10399 10401 10403 10406 10408 10409 10411 10412 10413 10413 10415 10416 10418 10421 10423 10426 10428 10430 10433 10436 10438 10439 10440 10441 10442 10442 10443 10442 10442 10443 10444 10444 10445 10447 10449 10453 10456 10459 10462 10465 10469 10472 10474 10478 10484 10488 10491 10495 10499 10504 10508 10507
10388 10389 10388 10385 10377 10371 10373 10379 10382 10384 10386 10389 10391 10392 10393 10395 10396 10398 10399 10399 10401 10402 10403 10405 10407 10410 10412 10414 10416 10419 10421 10424 10426 10427 10427 10427 10427 10427 10427 10427 10428 10429 10430 10431 10432 10434 10438 10442 10446 10450 10453 10457 10461 10463 10467 10471 10475 10479 10483 10487 10492 10495 10495
10376 10377 10376 10372 10365 10360 10361 10367 10371 10374 10378 10380 10382 10382 10382 10383 10384 10385 10386 10388 10390 10391 10392 10393 10395 10397 10398 10400 10402 10405 10408 10410 10412 10413 10412 10411 10410 10411 10411 10411 10412 10413 10415 10416 10417 10420 10423 10427 10432 10437 10442 10446 10449 10453 10456 10457 10460 10465 10470 10473 10478 10482 10484
10363 10366 10365 10362 10358 10354 10352 10355 10359 10364 10368 10371 10373 10373 10372 10372 10372 10373 10375 10377 10379 10380 10381 10382 10383 10384 10386 10388 10390 10392 10395 10397 10398 10397 10396 10395 10394 10394 10394 10394 10395 10397 10400 10402 10404 10406 10409 10414 10419 10424 10429 10434 10438 10442 10444 10444 10445 10451 10455 10459 10465 10470 10473
10352 10353 10354 10353 10351 10347 10344 10345 10349 10352 10357 10361 10364 10363 10362 10361 10361 10362 10363 10365 10367 10369 10370 10371 10372 10373 10375 10377 10379 10381 10382 10382 10382 10380 10379 10378 10377 10377 10377 10377 10378 10381 10386 10389 10391 10393 10396 10400 10406 10411 10416 10421 10426 10430 10431 10429 10431 10436 10441 10446 10452 10457 10461
10342 10342 10341 10340 10339 10336 10335 10337 10340 10342 10346 10351 10353 10353 10351 10350 10349 10349 10350 10353 10356 10358 10360 10361 10362 10364 10365 10366 10367 10367 10367 10366 10365 10364 10363 10362 10362 10361 10360 10361 10363 10367 10372 10376 10378 10381 10382 10386 10392 10398 10402 10407 10413 10416 10414 10412 10416 10423 10428 10434 10439 10444 10448
10331 10329 10326 10324 10324 10326 10328 10331 10334 10336 10339 10342 10343 10342 10340 10339 10339 10339 10341 10344 10346 10348 10351 10352 10352 10352 10352 10352 10351 10351 10351 10351 10350 10349 10348 10347 10347 10346 10346 10348 10351 10354 10358 10362 10365 10367 10368 10371 10377 10383 10387 10392 10396 10397 10395 10397 10404 10409 10414 10421 10425 10429 10434
10316 10314 10312 10312 10315 10319 10322 10325 10328 10330 10331 10332 10331 10331 10331 10330 10330 10330 10332 10334 10336 10337 10339 10341 10341 10340 10339 10338 10337 10337 10337 10335 10334 10334 10334 10333 10333 10335 10336 10338 10340 10342 10344 10347 10349 10351 10353 10355 10359 10365 10370 10374 10378 10379 10380 10385 10390 10394 10399 10406 10411 10415 10420
10302 10302 10304 10307 10310 10313 10316 10318 10320 10321 10321 10320 10320 10320 10321 10321 10321 10321 10323 10324 10326 10327 10328 10329 10329 10328 10327 10326 10324 10322 10321 10320 10319 10319 10322 10323 10325 10327 10328 10329 10329 10329 10330 10331 10333 10335 10337 10339 10342 10347 10352 10357 10361 10365 10368 10372 10375 10378 10384 10391 10396 10402 10407
10293 10295 10297 10300 10303 10306 10309 10310 10311 10310 10310 10309 10309 10310 10311 10311 10312 10313 10314 10315 10316 10318 10318 10318 10318 10317 10315 10313 10311 10308 10307 10307 10307 10309 10314 10318 10319 10319 10318 10317 10317 10317 10317 10318 10319 10321 10324 10327 10330 10333 10336 10341 10346 10350 10354 10359 10362 10364 10369 10376 10383 10390 10394
10286 10288 10290 10292 10294 10298 10300 10301 10300 10300 10299 10299 10300 10300 10301 10303 10304 10305 10306 10306 10307 10308 10308 10307 10306 10305 10303 10301 10299 10297 10296 10298 10300 10304 10308 10311 10310 10308 10307 10306 10305 10305 10305 10305 10307 10310 10313 10317 10319 10321 10322 10326 10331 10335 10340 10345 10348 10350 10355 10361 10367 10373 10378